Weather History for Jaffrey, NH

Change the Weather History Date:

Monday, July 1, 2013

  Actual Average Record
Temperature  
Mean Temperature 71 °F -  
Max Temperature 73 °F 76 °F 89 °F (2012)
Min Temperature 69 °F 55 °F 46 °F (2007)
Cooling Degree Days 6    
Growing Degree Days 21 (Base 50)    
Moisture  
Dew Point 69 °F    
Average Humidity 91    
Maximum Humidity 100    
Minimum Humidity 78    
Precipitation  
Precipitation 0.82 in - - ()
Sea Level Pressure  
Sea Level Pressure 30.04 in    
Wind  
Wind Speed 3 mph (South)    
Max Wind Speed 7 mph    
Max Gust Speed -    
Visibility 8 miles    
Events Fog , Rain    
Averages and records for this station are not official NWS values.
T = Trace of Precipitation, MM = Missing Value Source: NWS Daily Summary

Daily Weather History Graph

Daily Weather History Graph

Search for Another Location

Airport:

Trip Planner

Search our weather history database for the weather conditions in past years. The results will help you decide how hot, cold, wet, or windy it might be!

Date:

Astronomy

Jul. 01, 2013 Rise Set
Actual Time 5:13 AM EDT 8:30 PM EDT
Civil Twilight 4:38 AM EDT 9:05 PM EDT
Nautical Twilight 3:53 AM EDT 9:50 PM EDT
Astronomical Twilight 2:57 AM EDT 10:45 PM EDT
Moon 12:47 AM EDT (7/1) 2:37 PM EDT (7/1)
Length of Visible Light 16h 26m
Length of Day
15h 16m
Waning Crescent, 35% of the Moon is Illuminated
Jul 1
Waning Crescent
Jul 8
New
Jul 15
First Quarter
Jul 22
Full
Jul 29
Last Quarter

Hourly Weather History & Observations

Time (EDT) Temp. Dew Point Humidity Pressure Visibility Wind Dir Wind Speed Gust Speed Precip Events Conditions
12:02 AM 71.6 °F 68.0 °F 88% 29.97 in 10.0 mi South 4.6 mph - N/A   Mostly Cloudy
12:08 AM 71.6 °F 68.0 °F 88% 29.97 in 10.0 mi South 3.5 mph - N/A   Scattered Clouds
12:30 AM 71.6 °F 68.0 °F 88% 29.98 in 10.0 mi SW 3.5 mph - N/A   Mostly Cloudy
12:52 AM 71.1 °F 68.0 °F 90% 29.97 in 10.0 mi Calm Calm - N/A   Overcast
1:13 AM 69.8 °F 68.0 °F 94% 29.98 in 9.0 mi Calm Calm - N/A   Mostly Cloudy
1:45 AM 69.8 °F 68.0 °F 94% 29.98 in 10.0 mi SSW 3.5 mph - N/A   Scattered Clouds
1:52 AM 70.0 °F 68.0 °F 93% 29.98 in 10.0 mi SSW 4.6 mph - N/A   Mostly Cloudy
2:18 AM 69.8 °F 68.0 °F 94% 29.98 in 10.0 mi Calm Calm - N/A   Overcast
2:32 AM 69.8 °F 68.0 °F 94% 29.98 in 10.0 mi Variable 3.5 mph - N/A   Overcast
2:52 AM 70.0 °F 68.0 °F 93% 29.97 in 10.0 mi Calm Calm - N/A   Overcast
3:52 AM 70.0 °F 66.9 °F 90% 29.97 in 10.0 mi SSW 4.6 mph - N/A   Overcast
4:12 AM 69.8 °F 66.2 °F 88% 29.98 in 10.0 mi WSW 3.5 mph - N/A   Overcast
4:42 AM 69.8 °F 66.2 °F 88% 29.98 in 10.0 mi South 3.5 mph - N/A   Overcast
4:52 AM 70.0 °F 68.0 °F 93% 29.99 in 10.0 mi South 3.5 mph - N/A   Overcast
5:22 AM 69.8 °F 68.0 °F 94% 30.00 in 9.0 mi Calm Calm - N/A   Overcast
5:52 AM 70.0 °F 68.0 °F 93% 30.01 in 10.0 mi Calm Calm - N/A   Overcast
6:52 AM 71.1 °F 68.0 °F 90% 30.02 in 10.0 mi SSW 3.5 mph - N/A   Overcast
7:18 AM 71.6 °F 68.0 °F 88% 30.03 in 10.0 mi SSW 5.8 mph - N/A   Overcast
7:52 AM 71.1 °F 68.0 °F 90% 30.03 in 10.0 mi South 3.5 mph - N/A   Overcast
8:52 AM 72.0 °F 66.9 °F 84% 30.04 in 10.0 mi SSW 4.6 mph - N/A   Overcast
9:52 AM 73.9 °F 68.0 °F 82% 30.04 in 10.0 mi Calm Calm - N/A   Mostly Cloudy
10:10 AM 73.4 °F 66.2 °F 78% 30.04 in 10.0 mi South 3.5 mph - N/A   Overcast
10:23 AM 73.4 °F 66.2 °F 78% 30.04 in 10.0 mi Calm Calm - N/A   Overcast
10:35 AM 73.4 °F 66.2 °F 78% 30.05 in 10.0 mi SSE 4.6 mph - N/A   Overcast
10:52 AM 73.9 °F 68.0 °F 82% 30.05 in 10.0 mi Calm Calm - N/A   Overcast
11:06 AM 73.4 °F 68.0 °F 83% 30.05 in 10.0 mi Calm Calm - N/A   Overcast
11:24 AM 73.4 °F 68.0 °F 83% 30.05 in 10.0 mi Calm Calm - 0.00 in Rain Light Rain
11:33 AM 73.4 °F 69.8 °F 88% 30.05 in 5.0 mi Calm Calm - 0.02 in Rain Rain
11:41 AM 71.6 °F 69.8 °F 94% 30.06 in 1.8 mi Calm Calm - 0.09 in Rain Heavy Rain
11:45 AM 71.6 °F 69.8 °F 94% 30.06 in 1.0 mi Calm Calm - 0.17 in Rain Heavy Rain
11:52 AM 70.0 °F 69.1 °F 97% 30.06 in 0.5 mi Calm Calm - 0.30 in Fog , Rain Heavy Rain
12:03 PM 69.8 °F 69.8 °F 100% 30.05 in 1.5 mi Calm Calm - 0.05 in Rain Rain
12:06 PM 69.8 °F 69.8 °F 100% 30.05 in 3.0 mi Calm Calm - 0.05 in Rain Light Rain
12:40 PM 71.6 °F 69.8 °F 94% 30.05 in 4.0 mi Calm Calm - 0.10 in Rain Rain
12:52 PM 72.0 °F 69.1 °F 91% 30.05 in 5.0 mi Calm Calm - 0.11 in Rain Light Rain
1:06 PM 71.6 °F 69.8 °F 94% 30.06 in 4.0 mi Calm Calm - 0.03 in Rain Rain
1:18 PM 71.6 °F 69.8 °F 94% 30.06 in 2.5 mi Calm Calm - 0.07 in Rain Rain
1:23 PM 71.6 °F 69.8 °F 94% 30.06 in 3.0 mi Calm Calm - 0.08 in Rain Rain
1:34 PM 71.6 °F 69.8 °F 94% 30.06 in 2.0 mi Calm Calm - 0.13 in Rain Heavy Rain
1:52 PM 71.1 °F 70.0 °F 96% 30.05 in 2.0 mi Calm Calm - 0.20 in Rain Rain
2:03 PM 71.6 °F 69.8 °F 94% 30.05 in 4.0 mi Calm Calm - 0.01 in Rain Light Rain
2:10 PM 71.6 °F 69.8 °F 94% 30.05 in 4.0 mi Calm Calm - 0.02 in Rain Light Rain
2:52 PM 73.0 °F 70.0 °F 90% 30.05 in 10.0 mi Calm Calm - 0.03 in Rain Light Rain
3:43 PM 73.4 °F 71.6 °F 94% 30.04 in 10.0 mi Calm Calm - 0.00 in Rain Light Rain
3:52 PM 73.9 °F 71.1 °F 91% 30.04 in 10.0 mi Calm Calm - 0.00 in Rain Light Rain
4:13 PM 71.6 °F 69.8 °F 94% 30.04 in 4.0 mi SSE 3.5 mph - 0.02 in Rain Light Rain
4:17 PM 71.6 °F 69.8 °F 94% 30.05 in 1.5 mi SSE 5.8 mph - 0.11 in Rain Light Rain
4:19 PM 71.6 °F 69.8 °F 94% 30.05 in 1.0 mi SSE 4.6 mph - 0.14 in Rain Heavy Rain
4:21 PM 71.6 °F 69.8 °F 94% 30.05 in 0.8 mi SE 5.8 mph - 0.15 in Rain Heavy Rain
4:27 PM 71.6 °F 69.8 °F 94% 30.05 in 1.2 mi SSE 5.8 mph - 0.17 in Rain Rain
4:30 PM 71.6 °F 69.8 °F 94% 30.05 in 2.0 mi South 4.6 mph - 0.17 in Rain Rain
4:40 PM 71.6 °F 69.8 °F 94% 30.05 in 5.0 mi South 3.5 mph - 0.18 in Rain Light Rain
4:52 PM 72.0 °F 69.1 °F 91% 30.05 in 10.0 mi South 3.5 mph - 0.18 in Rain Light Rain
5:22 PM 73.4 °F 69.8 °F 88% 30.05 in 10.0 mi South 6.9 mph - 0.00 in   Scattered Clouds
5:52 PM 73.0 °F 70.0 °F 90% 30.05 in 10.0 mi South 5.8 mph - 0.00 in   Mostly Cloudy
6:52 PM 73.0 °F 70.0 °F 90% 30.06 in 10.0 mi South 3.5 mph - 0.00 in Rain Light Rain
7:52 PM 72.0 °F 70.0 °F 93% 30.07 in 10.0 mi South 4.6 mph - 0.00 in   Mostly Cloudy
8:08 PM 71.6 °F 69.8 °F 94% 30.07 in 10.0 mi South 3.5 mph - N/A   Mostly Cloudy
8:26 PM 71.6 °F 69.8 °F 94% 30.07 in 10.0 mi Calm Calm - N/A   Overcast
8:52 PM 72.0 °F 70.0 °F 93% 30.08 in 10.0 mi SSW 4.6 mph - N/A   Mostly Cloudy
9:14 PM 71.6 °F 69.8 °F 94% 30.09 in 10.0 mi South 3.5 mph - N/A   Overcast
9:33 PM 71.6 °F 69.8 °F 94% 30.09 in 10.0 mi Calm Calm - N/A   Overcast
9:38 PM 71.6 °F 69.8 °F 94% 30.09 in 10.0 mi South 3.5 mph - N/A   Overcast
9:52 PM 72.0 °F 69.1 °F 91% 30.10 in 10.0 mi South 6.9 mph - N/A   Overcast
10:16 PM 71.6 °F 69.8 °F 94% 30.10 in 10.0 mi Variable 3.5 mph - N/A   Overcast
10:52 PM 71.1 °F 69.1 °F 93% 30.10 in 10.0 mi South 4.6 mph - 0.00 in   Overcast
11:02 PM 71.6 °F 69.8 °F 94% 30.10 in 10.0 mi South 3.5 mph - N/A   Overcast
11:52 PM 71.1 °F 69.1 °F 93% 30.10 in 10.0 mi South 5.8 mph - N/A   Overcast